• Em Portugal
  • Lista de países
  • Para 7 dias
  • Temperatura da água
  • Mapas de satélite
  • Mapa do tempo
  • Widgets de tempo
  • user-avatar
    Iniciar Sessão

    Previsão horária em Sigolaevo

    Hoje, 21 Setembro, Sexta-feira

    Tempo Temperatura Precipitação Vento Pressão Humidade
    00:00 +16°C° 0 mm 1 m/s 746 mmHg 91%
    01:00 +15°C° 0 mm 1 m/s 747 mmHg 92%
    02:00 +15°C° 0 mm 1 m/s 747 mmHg 92%
    03:00 +15°C° 0 mm 1 m/s 747 mmHg 92%
    04:00 +14°C° 0 mm 1 m/s 747 mmHg 93%
    05:00 +14°C° 0 mm 1 m/s 747 mmHg 93%
    06:00 +15°C° 0 mm 1 m/s 747 mmHg 88%
    07:00 +18°C° 0 mm 1 m/s 748 mmHg 83%
    08:00 +19°C° 0 mm 1 m/s 748 mmHg 77%
    09:00 +21°C° 0 mm 1 m/s 748 mmHg 70%
    10:00 +23°C° 0 mm 1 m/s 748 mmHg 63%
    11:00 +24°C° 0 mm 1 m/s 748 mmHg 56%
    12:00 +25°C° 0 mm 1 m/s 748 mmHg 53%
    13:00 +26°C° 0 mm 1 m/s 748 mmHg 51%
    14:00 +26°C° 0 mm 1 m/s 748 mmHg 49%
    15:00 +25°C° 0 mm 1 m/s 748 mmHg 54%
    16:00 +24°C° 0 mm 1 m/s 747 mmHg 59%
    17:00 +23°C° 0 mm 1 m/s 747 mmHg 65%
    18:00 +22°C° 0 mm 1 m/s 747 mmHg 68%
    19:00 +20°C° 0 mm 1 m/s 747 mmHg 71%
    20:00 +18°C° 0 mm 2 m/s 747 mmHg 75%
    21:00 +18°C° 0 mm 2 m/s 747 mmHg 77%
    22:00 +18°C° 0 mm 2 m/s 747 mmHg 79%
    23:00 +17°C° 0 mm 2 m/s 747 mmHg 82%

    Amanhã, 22 Setembro, Sábado

    Tempo Temperatura Precipitação Vento Pressão Humidade
    00:00 +17°C° 0 mm 2 m/s 747 mmHg 83%
    01:00 +17°C° 0 mm 2 m/s 747 mmHg 85%
    02:00 +17°C° 0 mm 2 m/s 747 mmHg 87%
    03:00 +16°C° 0 mm 2 m/s 747 mmHg 87%
    04:00 +16°C° 0 mm 2 m/s 747 mmHg 87%
    05:00 +16°C° 0 mm 3 m/s 747 mmHg 87%
    06:00 +17°C° 0 mm 3 m/s 746 mmHg 81%
    07:00 +19°C° 0 mm 3 m/s 746 mmHg 75%
    08:00 +20°C° 0 mm 4 m/s 746 mmHg 68%
    09:00 +22°C° 0 mm 4 m/s 746 mmHg 63%
    10:00 +23°C° 0 mm 5 m/s 746 mmHg 58%
    11:00 +26°C° 0 mm 5 m/s 746 mmHg 53%
    12:00 +26°C° 0 mm 5 m/s 745 mmHg 51%
    13:00 +26°C° 0 mm 6 m/s 745 mmHg 50%
    14:00 +27°C° 0 mm 6 m/s 744 mmHg 48%
    15:00 +26°C° 0 mm 5 m/s 743 mmHg 53%
    16:00 +23°C° 0 mm 4 m/s 743 mmHg 58%
    17:00 +22°C° 0 mm 4 m/s 742 mmHg 63%
    18:00 +22°C° 0 mm 4 m/s 742 mmHg 62%
    19:00 +21°C° 0 mm 4 m/s 742 mmHg 61%
    20:00 +21°C° 0 mm 5 m/s 742 mmHg 59%
    21:00 +20°C° 0 mm 5 m/s 741 mmHg 58%
    22:00 +20°C° 0 mm 5 m/s 741 mmHg 58%
    23:00 +20°C° 0 mm 5 m/s 741 mmHg 57%

    Depois de amanhã, 23 Setembro, Domingo

    Tempo Temperatura Precipitação Vento Pressão Humidade
    00:00 +19°C° 0 mm 4 m/s 740 mmHg 61%
    01:00 +17°C° 0 mm 4 m/s 740 mmHg 65%
    02:00 +16°C° 0 mm 3 m/s 740 mmHg 69%
    03:00 +16°C° 0.1 mm 3 m/s 740 mmHg 72%
    04:00 +14°C° 0.1 mm 4 m/s 739 mmHg 75%
    05:00 +14°C° 0.1 mm 4 m/s 739 mmHg 78%
    06:00 +13°C° 0.7 mm 4 m/s 739 mmHg 81%
    07:00 +12°C° 0.7 mm 4 m/s 739 mmHg 85%
    08:00 +11°C° 0.7 mm 4 m/s 739 mmHg 88%
    09:00 +9°C° 1.5 mm 5 m/s 739 mmHg 89%
    10:00 +8°C° 1.5 mm 5 m/s 739 mmHg 89%
    11:00 +7°C° 1.5 mm 6 m/s 739 mmHg 90%
    12:00 +8°C° 0.8 mm 6 m/s 739 mmHg 88%
    13:00 +9°C° 0.8 mm 5 m/s 740 mmHg 87%
    14:00 +10°C° 0.8 mm 4 m/s 740 mmHg 85%
    15:00 +10°C° 0.1 mm 4 m/s 740 mmHg 85%
    16:00 +11°C° 0.1 mm 4 m/s 740 mmHg 85%
    17:00 +11°C° 0.1 mm 3 m/s 740 mmHg 85%
    18:00 +10°C° 0 mm 3 m/s 741 mmHg 87%
    19:00 +9°C° 0 mm 3 m/s 741 mmHg 90%
    20:00 +9°C° 0 mm 3 m/s 741 mmHg 92%
    21:00 +8°C° 0 mm 3 m/s 741 mmHg 92%
    22:00 +8°C° 0 mm 3 m/s 741 mmHg 92%
    23:00 +8°C° 0 mm 3 m/s 741 mmHg 93%

    24 Setembro, Segunda-feira

    Tempo Temperatura Precipitação Vento Pressão Humidade
    00:00 +7°C° 0 mm 3 m/s 741 mmHg 93%
    01:00 +7°C° 0 mm 3 m/s 742 mmHg 94%
    02:00 +7°C° 0 mm 3 m/s 742 mmHg 95%
    03:00 +5°C° 0 mm 3 m/s 742 mmHg 96%
    04:00 +5°C° 0 mm 3 m/s 742 mmHg 96%
    05:00 +5°C° 0 mm 3 m/s 742 mmHg 97%
    06:00 +7°C° 0 mm 3 m/s 742 mmHg 93%
    07:00 +8°C° 0 mm 3 m/s 742 mmHg 90%
    08:00 +9°C° 0 mm 3 m/s 742 mmHg 87%
    09:00 +10°C° 0 mm 3 m/s 742 mmHg 80%
    10:00 +12°C° 0 mm 4 m/s 742 mmHg 73%
    11:00 +13°C° 0 mm 4 m/s 742 mmHg 66%
    12:00 +13°C° 0 mm 4 m/s 741 mmHg 64%
    13:00 +14°C° 0 mm 4 m/s 741 mmHg 62%
    14:00 +14°C° 0 mm 4 m/s 741 mmHg 60%
    15:00 +13°C° 0 mm 4 m/s 740 mmHg 64%
    16:00 +12°C° 0 mm 4 m/s 739 mmHg 67%
    17:00 +12°C° 0 mm 4 m/s 739 mmHg 70%
    18:00 +10°C° 0.3 mm 5 m/s 738 mmHg 72%
    19:00 +10°C° 0.3 mm 6 m/s 737 mmHg 75%
    20:00 +10°C° 0.3 mm 7 m/s 736 mmHg 77%
    21:00 +10°C° 2.2 mm 8 m/s 735 mmHg 79%
    22:00 +8°C° 2.2 mm 9 m/s 733 mmHg 82%
    23:00 +8°C° 2.2 mm 10 m/s 732 mmHg 85%

    25 Setembro, Terça-feira

    Tempo Temperatura Precipitação Vento Pressão Humidade
    00:00 +9°C° 1.3 mm 10 m/s 731 mmHg 86%
    01:00 +10°C° 1.3 mm 9 m/s 731 mmHg 87%
    02:00 +11°C° 1.3 mm 9 m/s 730 mmHg 88%
    03:00 +10°C° 0.2 mm 8 m/s 729 mmHg 87%
    04:00 +9°C° 0.2 mm 8 m/s 729 mmHg 86%
    05:00 +8°C° 0.2 mm 7 m/s 729 mmHg 85%
    06:00 +8°C° 0.1 mm 7 m/s 728 mmHg 85%
    07:00 +8°C° 0.1 mm 7 m/s 728 mmHg 85%
    08:00 +8°C° 0.1 mm 7 m/s 728 mmHg 84%
    09:00 +8°C° 0.3 mm 7 m/s 728 mmHg 84%
    10:00 +7°C° 0.3 mm 8 m/s 727 mmHg 83%
    11:00 +7°C° 0.3 mm 8 m/s 727 mmHg 83%
    12:00 +8°C° 0.2 mm 7 m/s 727 mmHg 83%
    13:00 +8°C° 0.2 mm 7 m/s 727 mmHg 83%
    14:00 +8°C° 0.2 mm 7 m/s 727 mmHg 82%
    15:00 +8°C° 0.1 mm 6 m/s 727 mmHg 84%
    16:00 +8°C° 0.1 mm 5 m/s 727 mmHg 86%
    17:00 +7°C° 0.1 mm 4 m/s 727 mmHg 88%
    18:00 +7°C° 0.5 mm 4 m/s 727 mmHg 89%
    19:00 +7°C° 0.5 mm 4 m/s 728 mmHg 91%
    20:00 +7°C° 0.5 mm 4 m/s 728 mmHg 93%
    21:00 +7°C° 0.7 mm 5 m/s 728 mmHg 92%
    22:00 +5°C° 0.7 mm 6 m/s 729 mmHg 91%
    23:00 +5°C° 0.7 mm 6 m/s 730 mmHg 90%

    26 Setembro, Quarta-feira

    Tempo Temperatura Precipitação Vento Pressão Humidade
    00:00 +5°C° 0.5 mm 7 m/s 730 mmHg 89%
    01:00 +5°C° 0.5 mm 7 m/s 731 mmHg 88%
    02:00 +4°C° 0.5 mm 7 m/s 732 mmHg 88%
    03:00 +4°C° 0.1 mm 7 m/s 733 mmHg 87%
    04:00 +4°C° 0.1 mm 7 m/s 733 mmHg 87%
    05:00 +3°C° 0.1 mm 7 m/s 734 mmHg 86%
    06:00 +3°C° 0.1 mm 7 m/s 735 mmHg 85%
    07:00 +3°C° 0.1 mm 7 m/s 736 mmHg 84%
    08:00 +3°C° 0.1 mm 7 m/s 737 mmHg 83%
    09:00 +3°C° 0.1 mm 7 m/s 737 mmHg 81%
    10:00 +4°C° 0.1 mm 7 m/s 738 mmHg 79%
    11:00 +4°C° 0.1 mm 6 m/s 739 mmHg 77%
    12:00 +4°C° 0.2 mm 6 m/s 740 mmHg 77%
    13:00 +4°C° 0.2 mm 6 m/s 740 mmHg 77%
    14:00 +4°C° 0.2 mm 6 m/s 741 mmHg 77%
    15:00 +5°C° 0.1 mm 5 m/s 742 mmHg 78%
    16:00 +5°C° 0.1 mm 5 m/s 742 mmHg 80%
    17:00 +5°C° 0.1 mm 4 m/s 743 mmHg 81%
    18:00 +5°C° 0 mm 4 m/s 744 mmHg 82%
    19:00 +4°C° 0 mm 4 m/s 744 mmHg 84%
    20:00 +4°C° 0 mm 4 m/s 745 mmHg 85%
    21:00 +3°C° 0 mm 3 m/s 745 mmHg 86%
    22:00 +3°C° 0 mm 3 m/s 746 mmHg 87%
    23:00 +3°C° 0 mm 3 m/s 746 mmHg 88%
    Mostrar mais